Location: *
(43.4667°N, 11.6833°E)
Time: 07:55:17
(UTC+00:00)

Cosmos 614 Rocket - Pass Details

Date: 19 July 2019
Orbit: 733 x 764 km, 74.1° (Epoch: 23 August)

Event Time Altitude Azimuth Distance (km) Brightness Sun altitude
Exits shadow 20:56:14 11° 203° (SSW) 2,128 6.0 -17.8°
Maximum altitude 21:01:01 80° 290° (WNW) 749 4.0 -18.3°
Drops below altitude 10° 21:06:07 10° 18° (NNE) 2,249 6.9 -18.8°
Sets 21:08:29 0° 20° (NNE) 3,179 7.8 -19.1°
